Location: Gloden
(48.4833°N, 15.3167°E)
Time: 05:44:16
(UTC+00:00)

ALOS - Pass Details

Date: 15 December 2019
Orbit: 684 x 685 km, 97.8° (Epoch: 19 January)

Event Time Altitude Azimuth Distance (km) Brightness Sun altitude
Rises 04:28:16 0° 13° (NNE) 3,063 5.6 -21.3°
Reaches altitude 10° 04:30:31 10° 14° (NNE) 2,143 4.8 -20.9°
Maximum altitude 04:35:13 87° 99° (E) 693 2.2 -20.1°
Drops below altitude 10° 04:39:53 10° 194° (SSW) 2,125 4.8 -19.4°
Sets 04:42:07 0° 195° (SSW) 3,036 5.6 -19.0°
